IRIDIUM 75 [-] (25346 NORAD) Tracking and Keplerian Element Data

This shows tracking and keplerian element data for the satellite.

Feedback or suggestion? Click here.




ElementValue
Catalog25346
NameIRIDIUM 75 [-]
Epoch Orbit5560
Epoch Day191.28036638
Epoch Year2018
RAAN60.064
Inclination86.5326
Eccentricity0.0048405
Argument of Perigee92.1908
Mean Anonmoly268.7467
Mean Motion16.44512353
Decay Rate0.20260072
L11 25346U 98032E 18191.28036638 .20260072 -15268-5 23940-3 0 9996
L22 25346 86.5326 60.0640 0048405 92.1908 268.7467 16.44512353 55608

Live tracking and technical data element details for IRIDIUM 75 [-] (NORAD 25346). IRIDIUM 75 [-] can be tracked NOW for your location showing map with azimuth and elevation plus other details from your city location.

Track the satellite on the map from your city or location and see movement details for azimuth, elevation, latitude, longitude, range, height, and movement on the map or in text.







IsCatalogInMostPopularTable: catalog: 25346, numindb: 30
Update: records affected: 1



GetName: 25346 IRIDIUM 75 [-]

Hit Count: updated at: Mon, 16 Jul 2018 14:46:04 GMT